Time,TemperatureF,DewpointF,PressureIn,WindDirection,WindDirectionDegrees,WindSpeedMPH,WindSpeedGustMPH,Humidity,HourlyPrecipIn,Conditions,Clouds,dailyrainin,SoftwareType,DateUTC
2013-06-06 00:01:00,68.0,57.1,29.48,SW,225,4.0,4.3,68,0.00,,,0.00,WUHU216HW,2013-06-06 04:01:00,
2013-06-06 00:02:00,68.0,57.1,29.48,SW,225,4.0,4.3,68,0.00,,,0.00,WUHU216HW,2013-06-06 04:02:00,
2013-06-06 00:07:00,68.0,57.1,29.48,WSW,248,1.8,4.3,68,0.00,,,0.00,WUHU216HW,2013-06-06 04:07:00,
2013-06-06 00:12:00,67.9,56.9,29.48,SW,225,4.0,4.0,68,0.00,,,0.00,WUHU216HW,2013-06-06 04:12:00,
2013-06-06 00:17:00,67.7,56.4,29.48,SW,225,3.4,4.0,67,0.00,,,0.00,WUHU216HW,2013-06-06 04:17:00,
2013-06-06 00:22:00,67.3,56.4,29.48,WSW,248,1.3,4.0,68,0.00,,,0.00,WUHU216HW,2013-06-06 04:22:00,
2013-06-06 00:27:00,67.1,56.3,29.48,SW,225,1.8,3.4,68,0.00,,,0.00,WUHU216HW,2013-06-06 04:27:00,
2013-06-06 00:32:00,66.8,56.3,29.48,SSE,158,2.7,3.1,69,0.00,,,0.00,WUHU216HW,2013-06-06 04:32:00,
2013-06-06 00:37:00,66.6,56.1,29.48,SSW,203,1.6,3.1,69,0.00,,,0.00,WUHU216HW,2013-06-06 04:37:00,
2013-06-06 00:42:00,66.4,55.9,29.48,SW,225,1.3,2.7,69,0.00,,,0.00,WUHU216HW,2013-06-06 04:42:00,
2013-06-06 00:47:00,66.2,55.7,29.48,SE,135,0.4,1.6,69,0.00,,,0.00,WUHU216HW,2013-06-06 04:47:00,
2013-06-06 00:52:00,65.9,55.5,29.48,SE,135,0.7,1.3,69,0.00,,,0.00,WUHU216HW,2013-06-06 04:52:00,
2013-06-06 00:57:00,65.7,55.7,29.48,SW,225,0.4,1.1,70,0.00,,,0.00,WUHU216HW,2013-06-06 04:57:00,
2013-06-06 01:02:00,65.3,55.7,29.48,SSE,158,3.6,3.6,71,0.00,,,0.00,WUHU216HW,2013-06-06 05:02:00,
2013-06-06 01:07:00,65.5,55.5,29.48,SSE,158,2.9,3.6,70,0.00,,,0.00,WUHU216HW,2013-06-06 05:07:00,
2013-06-06 01:12:00,65.5,55.5,29.48,SE,135,2.2,3.8,70,0.00,,,0.00,WUHU216HW,2013-06-06 05:12:00,
2013-06-06 01:17:00,65.5,55.5,29.48,SE,135,2.7,5.1,70,0.00,,,0.00,WUHU216HW,2013-06-06 05:17:00,
2013-06-06 01:22:00,65.3,55.4,29.47,SW,225,3.4,5.1,70,0.00,,,0.00,WUHU216HW,2013-06-06 05:22:00,
2013-06-06 01:27:00,65.3,55.4,29.47,South,180,4.9,4.9,70,0.00,,,0.00,WUHU216HW,2013-06-06 05:27:00,
2013-06-06 01:32:00,65.5,55.5,29.47,South,180,2.5,4.9,70,0.00,,,0.00,WUHU216HW,2013-06-06 05:32:00,
2013-06-06 01:37:00,65.3,55.4,29.47,SSW,203,2.5,4.9,70,0.00,,,0.00,WUHU216HW,2013-06-06 05:37:00,
2013-06-06 01:42:00,65.3,55.4,29.47,South,180,4.7,4.7,70,0.00,,,0.00,WUHU216HW,2013-06-06 05:42:00,
2013-06-06 01:47:00,65.3,55.4,29.47,SW,225,5.4,7.6,70,0.00,,,0.00,WUHU216HW,2013-06-06 05:47:00,
2013-06-06 01:52:00,65.2,55.2,29.47,SSE,158,3.8,7.6,70,0.00,,,0.00,WUHU216HW,2013-06-06 05:52:00,
2013-06-06 01:57:00,65.2,55.2,29.47,SW,225,1.8,5.4,70,0.00,,,0.00,WUHU216HW,2013-06-06 05:57:00,
2013-06-06 02:02:00,65.0,55.0,29.46,SSE,158,6.0,6.0,70,0.00,,,0.00,WUHU216HW,2013-06-06 06:02:00,
2013-06-06 02:07:00,64.8,54.9,29.47,South,180,4.0,6.0,70,0.00,,,0.00,WUHU216HW,2013-06-06 06:07:00,
2013-06-06 02:12:00,64.8,54.9,29.47,SSE,158,4.9,7.4,70,0.00,,,0.00,WUHU216HW,2013-06-06 06:12:00,
2013-06-06 02:17:00,64.8,54.9,29.47,SSE,158,4.9,7.4,70,0.00,,,0.00,WUHU216HW,2013-06-06 06:17:00,
2013-06-06 02:22:00,64.8,54.9,29.47,SSE,158,4.9,5.1,70,0.00,,,0.00,WUHU216HW,2013-06-06 06:22:00,
2013-06-06 02:27:00,64.8,54.9,29.47,SSE,158,3.4,5.1,70,0.00,,,0.00,WUHU216HW,2013-06-06 06:27:00,
2013-06-06 02:32:00,64.6,54.7,29.46,SW,225,1.8,5.1,70,0.00,,,0.00,WUHU216HW,2013-06-06 06:32:00,
2013-06-06 02:37:00,64.6,54.7,29.47,SSE,158,3.4,3.6,70,0.00,,,0.00,WUHU216HW,2013-06-06 06:37:00,
2013-06-06 02:42:00,64.6,54.7,29.47,SSW,203,2.7,3.6,70,0.00,,,0.00,WUHU216HW,2013-06-06 06:42:00,
2013-06-06 02:47:00,64.6,54.7,29.46,SW,225,1.8,4.3,70,0.00,,,0.00,WUHU216HW,2013-06-06 06:47:00,
2013-06-06 02:52:00,64.6,54.7,29.46,SSW,203,3.4,6.0,70,0.00,,,0.00,WUHU216HW,2013-06-06 06:52:00,
2013-06-06 02:57:00,64.6,54.7,29.46,South,180,3.4,6.0,70,0.00,,,0.00,WUHU216HW,2013-06-06 06:57:00,
2013-06-06 03:02:00,64.6,54.3,29.46,ESE,113,4.7,4.7,69,0.00,,,0.00,WUHU216HW,2013-06-06 07:02:00,
2013-06-06 03:07:00,64.6,54.3,29.46,SSW,203,2.2,4.7,69,0.00,,,0.00,WUHU216HW,2013-06-06 07:07:00,
2013-06-06 03:12:00,64.6,54.3,29.46,SSW,203,2.5,3.1,69,0.00,,,0.00,WUHU216HW,2013-06-06 07:12:00,
2013-06-06 03:17:00,64.6,54.3,29.46,South,180,3.8,4.7,69,0.00,,,0.00,WUHU216HW,2013-06-06 07:17:00,
2013-06-06 03:22:00,64.4,53.6,29.46,SSW,203,1.8,4.7,68,0.00,,,0.00,WUHU216HW,2013-06-06 07:22:00,
2013-06-06 03:27:00,64.4,53.6,29.45,SSW,203,2.9,3.8,68,0.00,,,0.00,WUHU216HW,2013-06-06 07:27:00,
2013-06-06 03:32:00,64.4,53.6,29.45,SSW,203,1.6,2.9,68,0.00,,,0.00,WUHU216HW,2013-06-06 07:32:00,
2013-06-06 03:37:00,64.3,53.5,29.45,SSW,203,1.8,4.0,68,0.00,,,0.00,WUHU216HW,2013-06-06 07:37:00,
2013-06-06 03:42:00,64.3,53.9,29.45,South,180,3.4,4.0,69,0.00,,,0.00,WUHU216HW,2013-06-06 07:42:00,
2013-06-06 03:47:00,64.1,53.7,29.45,SSW,203,1.8,3.6,69,0.00,,,0.00,WUHU216HW,2013-06-06 07:47:00,
2013-06-06 03:52:00,64.1,53.3,29.45,South,180,3.4,5.4,68,0.00,,,0.00,WUHU216HW,2013-06-06 07:52:00,
2013-06-06 03:57:00,64.1,53.7,29.45,South,180,2.5,5.4,69,0.00,,,0.00,WUHU216HW,2013-06-06 07:57:00,
2013-06-06 04:02:00,64.1,53.7,29.44,SW,225,1.8,4.3,69,0.00,,,0.00,WUHU216HW,2013-06-06 08:02:00,
2013-06-06 04:07:00,64.1,53.7,29.44,WSW,248,1.1,2.5,69,0.00,,,0.00,WUHU216HW,2013-06-06 08:07:00,
2013-06-06 04:12:00,63.7,53.4,29.44,SW,225,1.3,1.8,69,0.00,,,0.00,WUHU216HW,2013-06-06 08:12:00,
2013-06-06 04:17:00,63.7,53.4,29.44,SW,225,1.6,2.5,69,0.00,,,0.00,WUHU216HW,2013-06-06 08:17:00,
2013-06-06 04:22:00,63.7,53.8,29.44,SSW,203,3.6,3.6,70,0.00,,,0.00,WUHU216HW,2013-06-06 08:22:00,
2013-06-06 04:27:00,63.7,53.4,29.44,SSE,158,1.3,3.6,69,0.00,,,0.00,WUHU216HW,2013-06-06 08:27:00,
2013-06-06 04:32:00,63.5,53.6,29.44,WSW,248,2.7,3.6,70,0.00,,,0.00,WUHU216HW,2013-06-06 08:32:00,
2013-06-06 04:37:00,63.5,53.6,29.44,SW,225,2.5,2.7,70,0.00,,,0.00,WUHU216HW,2013-06-06 08:37:00,
2013-06-06 04:42:00,63.4,53.5,29.44,SW,225,1.6,2.9,70,0.00,,,0.00,WUHU216HW,2013-06-06 08:42:00,
2013-06-06 04:47:00,63.4,53.5,29.44,SSW,203,1.8,3.1,70,0.00,,,0.00,WUHU216HW,2013-06-06 08:47:00,
2013-06-06 04:52:00,63.4,53.5,29.44,SW,225,3.4,3.4,70,0.00,,,0.00,WUHU216HW,2013-06-06 08:52:00,
2013-06-06 04:57:00,63.2,53.3,29.43,SSW,203,4.0,4.0,70,0.00,,,0.00,WUHU216HW,2013-06-06 08:57:00,
2013-06-06 05:02:00,63.0,53.1,29.44,South,180,2.5,4.0,70,0.00,,,0.00,WUHU216HW,2013-06-06 09:02:00,
2013-06-06 05:07:00,63.0,53.1,29.44,SW,225,1.1,4.0,70,0.00,,,0.00,WUHU216HW,2013-06-06 09:07:00,
2013-06-06 05:12:00,63.0,53.1,29.43,South,180,1.1,3.1,70,0.00,,,0.00,WUHU216HW,2013-06-06 09:12:00,
2013-06-06 05:17:00,63.0,53.5,29.44,SW,225,0.0,1.1,71,0.00,,,0.00,WUHU216HW,2013-06-06 09:17:00,
2013-06-06 05:22:00,62.8,53.3,29.44,West,270,1.3,1.3,71,0.00,,,0.00,WUHU216HW,2013-06-06 09:22:00,
2013-06-06 05:27:00,62.6,53.5,29.44,ESE,113,0.7,2.2,72,0.00,,,0.00,WUHU216HW,2013-06-06 09:27:00,
2013-06-06 05:32:00,62.6,53.1,29.44,SSW,203,0.4,2.2,71,0.00,,,0.00,WUHU216HW,2013-06-06 09:32:00,
2013-06-06 05:37:00,62.5,52.9,29.44,WSW,248,0.0,0.7,71,0.00,,,0.00,WUHU216HW,2013-06-06 09:37:00,
2013-06-06 05:42:00,62.5,53.3,29.44,SW,225,0.7,0.9,72,0.00,,,0.00,WUHU216HW,2013-06-06 09:42:00,
2013-06-06 05:47:00,62.3,53.1,29.45,SW,225,1.8,2.7,72,0.00,,,0.00,WUHU216HW,2013-06-06 09:47:00,
2013-06-06 05:52:00,62.3,53.1,29.45,SW,225,1.1,2.7,72,0.00,,,0.00,WUHU216HW,2013-06-06 09:52:00,
2013-06-06 05:57:00,62.3,53.1,29.45,WSW,248,1.6,1.8,72,0.00,,,0.00,WUHU216HW,2013-06-06 09:57:00,
2013-06-06 06:02:00,62.3,53.1,29.45,SW,225,1.1,1.6,72,0.00,,,0.00,WUHU216HW,2013-06-06 10:02:00,
2013-06-06 06:07:00,62.5,53.3,29.45,SSW,203,0.0,1.6,72,0.00,,,0.00,WUHU216HW,2013-06-06 10:07:00,
2013-06-06 06:12:00,62.5,53.3,29.45,North,0,0.0,1.1,72,0.00,,,0.00,WUHU216HW,2013-06-06 10:12:00,
2013-06-06 06:17:00,62.5,53.3,29.45,WSW,248,0.0,0.0,72,0.00,,,0.00,WUHU216HW,2013-06-06 10:17:00,
2013-06-06 06:22:00,62.5,53.3,29.45,North,0,0.0,0.0,72,0.00,,,0.00,WUHU216HW,2013-06-06 10:22:00,
2013-06-06 06:27:00,62.5,53.3,29.45,SE,135,0.0,1.8,72,0.00,,,0.00,WUHU216HW,2013-06-06 10:27:00,
2013-06-06 06:32:00,62.8,54.4,29.45,WSW,248,0.4,1.8,74,0.00,,,0.00,WUHU216HW,2013-06-06 10:32:00,
2013-06-06 06:37:00,63.0,54.5,29.45,WSW,248,0.0,0.4,74,0.00,,,0.00,WUHU216HW,2013-06-06 10:37:00,
2013-06-06 06:42:00,63.4,54.9,29.45,WSW,248,1.8,2.2,74,0.00,,,0.00,WUHU216HW,2013-06-06 10:42:00,
2013-06-06 06:47:00,63.5,55.1,29.45,SSW,203,2.0,2.2,74,0.00,,,0.00,WUHU216HW,2013-06-06 10:47:00,
2013-06-06 06:52:00,63.7,54.9,29.45,SSW,203,0.9,2.0,73,0.00,,,0.00,WUHU216HW,2013-06-06 10:52:00,
2013-06-06 06:57:00,63.9,54.7,29.45,South,180,2.5,2.5,72,0.00,,,0.00,WUHU216HW,2013-06-06 10:57:00,
2013-06-06 07:02:00,63.9,54.4,29.45,SSW,203,2.2,2.5,71,0.00,,,0.00,WUHU216HW,2013-06-06 11:02:00,
2013-06-06 07:07:00,63.9,54.4,29.45,SSW,203,2.2,2.7,71,0.00,,,0.00,WUHU216HW,2013-06-06 11:07:00,
2013-06-06 07:12:00,63.7,54.2,29.45,SW,225,2.2,2.7,71,0.00,,,0.00,WUHU216HW,2013-06-06 11:12:00,
2013-06-06 07:17:00,63.7,54.2,29.45,WSW,248,2.9,3.4,71,0.00,,,0.00,WUHU216HW,2013-06-06 11:17:00,
2013-06-06 07:22:00,63.7,54.2,29.45,SW,225,2.9,3.4,71,0.00,,,0.00,WUHU216HW,2013-06-06 11:22:00,
2013-06-06 07:27:00,63.5,54.0,29.45,SW,225,1.8,2.9,71,0.00,,,0.00,WUHU216HW,2013-06-06 11:27:00,
2013-06-06 07:32:00,63.5,54.0,29.45,South,180,2.7,2.9,71,0.00,,,0.00,WUHU216HW,2013-06-06 11:32:00,
2013-06-06 07:37:00,63.5,54.0,29.45,SSW,203,1.3,2.7,71,0.00,,,0.00,WUHU216HW,2013-06-06 11:37:00,
2013-06-06 07:42:00,63.4,54.2,29.45,WSW,248,0.9,2.7,72,0.00,,,0.00,WUHU216HW,2013-06-06 11:42:00,
2013-06-06 07:47:00,63.4,54.2,29.45,SW,225,1.3,1.3,72,0.00,,,0.00,WUHU216HW,2013-06-06 11:47:00,
2013-06-06 07:52:00,63.2,54.7,29.45,WSW,248,0.9,1.6,74,0.00,,,0.00,WUHU216HW,2013-06-06 11:52:00,
2013-06-06 07:57:00,63.0,54.5,29.45,SW,225,0.0,1.6,74,0.00,,,0.00,WUHU216HW,2013-06-06 11:57:00,
2013-06-06 08:02:00,62.8,54.7,29.45,SSW,203,0.9,1.3,75,0.00,,,0.00,WUHU216HW,2013-06-06 12:02:00,
2013-06-06 08:07:00,62.8,55.1,29.44,SW,225,1.8,1.8,76,0.00,,,0.00,WUHU216HW,2013-06-06 12:07:00,
2013-06-06 08:12:00,62.6,54.9,29.44,WSW,248,1.6,1.8,76,0.00,,,0.00,WUHU216HW,2013-06-06 12:12:00,
2013-06-06 08:17:00,62.3,54.5,29.44,SW,225,1.6,2.5,76,0.00,,,0.00,WUHU216HW,2013-06-06 12:17:00,
2013-06-06 08:22:00,62.3,54.9,29.44,SW,225,0.7,2.5,77,0.00,,,0.00,WUHU216HW,2013-06-06 12:22:00,
2013-06-06 08:27:00,62.1,55.2,29.44,SSW,203,1.1,1.6,78,0.00,,,0.00,WUHU216HW,2013-06-06 12:27:00,
2013-06-06 08:32:00,62.3,55.6,29.45,SSW,203,0.4,1.1,79,0.00,,,0.00,WUHU216HW,2013-06-06 12:32:00,
2013-06-06 08:37:00,62.3,55.6,29.44,SSE,158,0.0,1.1,79,0.00,,,0.00,WUHU216HW,2013-06-06 12:37:00,
2013-06-06 08:42:00,62.5,56.2,29.44,SE,135,0.4,0.7,80,0.00,,,0.00,WUHU216HW,2013-06-06 12:42:00,
2013-06-06 08:47:00,62.6,56.7,29.43,SE,135,0.0,0.7,81,0.00,,,0.00,WUHU216HW,2013-06-06 12:47:00,
2013-06-06 08:52:00,62.3,56.3,29.43,WSW,248,0.4,0.4,81,0.00,,,0.00,WUHU216HW,2013-06-06 12:52:00,
2013-06-06 08:57:00,61.9,56.7,29.43,WSW,248,0.0,0.7,83,0.00,,,0.00,WUHU216HW,2013-06-06 12:57:00,
2013-06-06 09:02:00,61.9,57.1,29.43,WNW,293,1.3,1.8,84,0.00,,,0.00,WUHU216HW,2013-06-06 13:02:00,
2013-06-06 09:07:00,61.9,57.3,29.43,West,270,1.3,1.8,85,0.00,,,0.00,WUHU216HW,2013-06-06 13:07:00,
2013-06-06 09:12:00,62.3,58.1,29.43,West,270,1.8,1.8,86,0.00,,,0.00,WUHU216HW,2013-06-06 13:12:00,
2013-06-06 09:17:00,62.5,58.6,29.43,WSW,248,2.2,2.7,87,0.00,,,0.00,WUHU216HW,2013-06-06 13:17:00,
2013-06-06 09:22:00,62.5,58.6,29.43,SW,225,0.9,2.7,87,0.00,,,0.00,WUHU216HW,2013-06-06 13:22:00,
2013-06-06 09:27:00,62.6,58.8,29.43,WSW,248,1.8,2.7,87,0.00,,,0.00,WUHU216HW,2013-06-06 13:27:00,
2013-06-06 09:32:00,62.6,58.8,29.43,SW,225,1.1,2.7,87,0.00,,,0.00,WUHU216HW,2013-06-06 13:32:00,
2013-06-06 09:37:00,63.0,59.1,29.43,West,270,0.0,1.8,87,0.00,,,0.00,WUHU216HW,2013-06-06 13:37:00,
2013-06-06 09:42:00,63.0,59.4,29.43,ESE,113,0.7,1.8,88,0.00,,,0.00,WUHU216HW,2013-06-06 13:42:00,
2013-06-06 09:47:00,63.0,59.4,29.43,ESE,113,0.7,1.1,88,0.00,,,0.00,WUHU216HW,2013-06-06 13:47:00,
2013-06-06 09:52:00,63.0,59.4,29.43,ESE,113,0.0,1.1,88,0.00,,,0.00,WUHU216HW,2013-06-06 13:52:00,
2013-06-06 09:57:00,63.0,59.8,29.43,SSW,203,0.9,1.1,89,0.00,,,0.00,WUHU216HW,2013-06-06 13:57:00,
2013-06-06 10:02:00,63.4,60.1,29.42,SSE,158,1.1,1.3,89,0.01,,,0.01,WUHU216HW,2013-06-06 14:02:00,
2013-06-06 10:07:00,63.5,60.3,29.42,West,270,0.9,1.6,89,0.01,,,0.01,WUHU216HW,2013-06-06 14:07:00,
2013-06-06 10:12:00,63.5,60.3,29.42,WSW,248,2.5,2.5,89,0.02,,,0.02,WUHU216HW,2013-06-06 14:12:00,
2013-06-06 10:17:00,63.7,60.5,29.42,SE,135,0.9,2.5,89,0.02,,,0.02,WUHU216HW,2013-06-06 14:17:00,
2013-06-06 10:22:00,63.7,60.5,29.42,East,90,1.3,2.5,89,0.03,,,0.03,WUHU216HW,2013-06-06 14:22:00,
2013-06-06 10:27:00,63.5,60.3,29.42,ENE,68,0.0,1.8,89,0.04,,,0.04,WUHU216HW,2013-06-06 14:27:00,
2013-06-06 10:32:00,63.4,60.1,29.42,WNW,293,1.8,3.4,89,0.07,,,0.07,WUHU216HW,2013-06-06 14:32:00,
2013-06-06 10:37:00,63.0,59.8,29.42,West,270,2.0,3.4,89,0.08,,,0.08,WUHU216HW,2013-06-06 14:37:00,
2013-06-06 10:42:00,63.2,60.3,29.41,East,90,1.1,3.4,90,0.09,,,0.09,WUHU216HW,2013-06-06 14:42:00,
2013-06-06 10:47:00,63.0,60.1,29.41,SE,135,0.9,2.0,90,0.09,,,0.09,WUHU216HW,2013-06-06 14:47:00,
2013-06-06 10:52:00,63.4,60.5,29.41,SSW,203,1.8,1.8,90,0.09,,,0.09,WUHU216HW,2013-06-06 14:52:00,
2013-06-06 10:57:00,63.4,60.5,29.42,WSW,248,2.5,2.5,90,0.10,,,0.10,WUHU216HW,2013-06-06 14:57:00,
2013-06-06 11:02:00,63.5,60.7,29.41,SE,135,1.1,2.5,90,0.10,,,0.11,WUHU216HW,2013-06-06 15:02:00,
2013-06-06 11:07:00,63.4,60.5,29.41,West,270,1.8,3.4,90,0.11,,,0.12,WUHU216HW,2013-06-06 15:07:00,
2013-06-06 11:12:00,63.5,60.7,29.41,WSW,248,2.2,3.4,90,0.11,,,0.13,WUHU216HW,2013-06-06 15:12:00,
2013-06-06 11:17:00,63.5,60.9,29.41,WSW,248,0.9,2.5,91,0.12,,,0.14,WUHU216HW,2013-06-06 15:17:00,
2013-06-06 11:22:00,64.1,61.5,29.41,WSW,248,3.4,3.4,91,0.11,,,0.14,WUHU216HW,2013-06-06 15:22:00,
2013-06-06 11:27:00,64.6,62.0,29.41,SW,225,1.8,3.4,91,0.10,,,0.14,WUHU216HW,2013-06-06 15:27:00,
2013-06-06 11:32:00,64.6,61.8,29.41,WSW,248,2.9,4.0,90,0.07,,,0.14,WUHU216HW,2013-06-06 15:32:00,
2013-06-06 11:37:00,64.4,61.8,29.41,NE,45,1.6,4.0,91,0.07,,,0.15,WUHU216HW,2013-06-06 15:37:00,
2013-06-06 11:42:00,64.3,61.7,29.41,SE,135,1.1,3.4,91,0.06,,,0.15,WUHU216HW,2013-06-06 15:42:00,
2013-06-06 11:47:00,64.1,61.5,29.41,South,180,2.7,2.7,91,0.06,,,0.15,WUHU216HW,2013-06-06 15:47:00,
2013-06-06 11:52:00,64.1,61.5,29.41,SW,225,0.0,2.7,91,0.05,,,0.15,WUHU216HW,2013-06-06 15:52:00,
2013-06-06 11:57:00,64.1,61.5,29.41,SW,225,1.3,2.7,91,0.05,,,0.15,WUHU216HW,2013-06-06 15:57:00,
2013-06-06 12:02:00,64.3,61.9,29.41,West,270,1.6,1.8,92,0.04,,,0.15,WUHU216HW,2013-06-06 16:02:00,
2013-06-06 12:07:00,64.4,61.8,29.40,WNW,293,1.1,1.6,91,0.03,,,0.15,WUHU216HW,2013-06-06 16:07:00,
2013-06-06 12:12:00,64.4,61.8,29.41,WSW,248,1.8,1.8,91,0.02,,,0.16,WUHU216HW,2013-06-06 16:12:00,
2013-06-06 12:17:00,64.3,61.4,29.41,SW,225,1.3,2.5,90,0.02,,,0.16,WUHU216HW,2013-06-06 16:17:00,
2013-06-06 12:22:00,64.3,61.7,29.41,SE,135,0.9,2.5,91,0.02,,,0.16,WUHU216HW,2013-06-06 16:22:00,
2013-06-06 12:28:00,64.3,61.7,29.40,SW,225,1.6,1.8,91,0.03,,,0.17,WUHU216HW,2013-06-06 16:28:00,
2013-06-06 12:33:00,64.1,61.5,29.41,SSW,203,0.2,1.8,91,0.02,,,0.17,WUHU216HW,2013-06-06 16:33:00,
2013-06-06 12:37:00,64.1,61.5,29.40,SSW,203,1.1,1.8,91,0.03,,,0.18,WUHU216HW,2013-06-06 16:37:00,
2013-06-06 12:43:00,63.9,61.3,29.40,SW,225,4.0,4.0,91,0.04,,,0.19,WUHU216HW,2013-06-06 16:43:00,
2013-06-06 12:48:00,63.5,60.9,29.40,East,90,0.4,4.0,91,0.05,,,0.20,WUHU216HW,2013-06-06 16:48:00,
2013-06-06 12:53:00,63.4,60.8,29.40,WNW,293,1.8,4.0,91,0.05,,,0.20,WUHU216HW,2013-06-06 16:53:00,
2013-06-06 12:58:00,63.2,60.6,29.40,WSW,248,4.3,4.3,91,0.06,,,0.21,WUHU216HW,2013-06-06 16:58:00,
2013-06-06 13:03:00,63.2,60.6,29.40,South,180,1.8,4.3,91,0.07,,,0.22,WUHU216HW,2013-06-06 17:03:00,
2013-06-06 13:08:00,63.2,60.8,29.40,WSW,248,1.6,4.3,92,0.07,,,0.22,WUHU216HW,2013-06-06 17:08:00,
2013-06-06 13:13:00,63.2,60.8,29.39,West,270,1.6,1.8,92,0.06,,,0.22,WUHU216HW,2013-06-06 17:13:00,
2013-06-06 13:18:00,63.4,61.0,29.39,NW,315,1.1,2.2,92,0.08,,,0.24,WUHU216HW,2013-06-06 17:18:00,
2013-06-06 13:23:00,63.4,61.0,29.38,WNW,293,2.5,2.5,92,0.09,,,0.25,WUHU216HW,2013-06-06 17:23:00,
2013-06-06 13:28:00,63.4,61.0,29.38,NW,315,0.7,2.5,92,0.09,,,0.26,WUHU216HW,2013-06-06 17:28:00,
2013-06-06 13:33:00,63.5,61.2,29.38,WNW,293,2.9,2.9,92,0.10,,,0.28,WUHU216HW,2013-06-06 17:33:00,
2013-06-06 13:38:00,63.5,61.2,29.38,WNW,293,3.1,3.1,92,0.09,,,0.28,WUHU216HW,2013-06-06 17:38:00,
2013-06-06 13:43:00,63.5,61.2,29.38,WNW,293,4.7,4.7,92,0.10,,,0.29,WUHU216HW,2013-06-06 17:43:00,
2013-06-06 13:48:00,63.4,61.0,29.38,West,270,3.6,4.7,92,0.11,,,0.31,WUHU216HW,2013-06-06 17:48:00,
2013-06-06 13:53:00,63.4,61.0,29.37,West,270,2.0,4.7,92,0.13,,,0.33,WUHU216HW,2013-06-06 17:53:00,
2013-06-06 13:58:00,63.4,61.0,29.38,West,270,2.9,4.7,92,0.14,,,0.35,WUHU216HW,2013-06-06 17:58:00,
2013-06-06 14:03:00,63.2,60.8,29.38,SSW,203,1.8,4.7,92,0.14,,,0.37,WUHU216HW,2013-06-06 18:03:00,
2013-06-06 14:08:00,63.2,61.2,29.38,SSW,203,1.8,4.3,93,0.15,,,0.37,WUHU216HW,2013-06-06 18:08:00,
2013-06-06 14:13:00,63.2,61.2,29.38,NNW,338,0.7,2.5,93,0.16,,,0.39,WUHU216HW,2013-06-06 18:13:00,
2013-06-06 14:18:00,63.0,61.0,29.37,NNE,23,4.0,4.0,93,0.16,,,0.41,WUHU216HW,2013-06-06 18:18:00,
2013-06-06 14:23:00,63.2,61.2,29.37,NW,315,0.9,4.7,93,0.16,,,0.42,WUHU216HW,2013-06-06 18:23:00,
2013-06-06 14:28:00,63.4,61.4,29.36,NW,315,1.1,4.7,93,0.13,,,0.42,WUHU216HW,2013-06-06 18:28:00,
2013-06-06 14:33:00,63.2,61.2,29.36,NNW,338,0.4,1.3,93,0.13,,,0.42,WUHU216HW,2013-06-06 18:33:00,
2013-06-06 14:38:00,63.4,61.4,29.36,North,0,1.8,1.8,93,0.13,,,0.42,WUHU216HW,2013-06-06 18:38:00,
2013-06-06 14:43:00,63.5,61.6,29.35,North,0,0.7,1.8,93,0.14,,,0.44,WUHU216HW,2013-06-06 18:43:00,
2013-06-06 14:48:00,63.5,61.6,29.35,NE,45,4.7,4.7,93,0.12,,,0.44,WUHU216HW,2013-06-06 18:48:00,
2013-06-06 14:53:00,63.7,61.8,29.35,NNW,338,0.2,4.7,93,0.08,,,0.44,WUHU216HW,2013-06-06 18:53:00,
2013-06-06 14:58:00,63.7,61.8,29.35,North,0,0.2,4.7,93,0.08,,,0.44,WUHU216HW,2013-06-06 18:58:00,
2013-06-06 15:03:00,63.7,61.8,29.35,NNW,338,0.4,1.6,93,0.06,,,0.44,WUHU216HW,2013-06-06 19:03:00,
2013-06-06 15:08:00,63.7,61.8,29.35,NW,315,1.1,1.6,93,0.04,,,0.44,WUHU216HW,2013-06-06 19:08:00,
2013-06-06 15:13:00,63.7,61.8,29.35,NNE,23,1.6,1.6,93,0.02,,,0.44,WUHU216HW,2013-06-06 19:13:00,
2013-06-06 15:18:00,63.7,61.8,29.35,North,0,2.7,2.7,93,0.02,,,0.44,WUHU216HW,2013-06-06 19:18:00,
2013-06-06 15:23:00,63.7,62.0,29.35,NNW,338,3.4,3.4,94,0.02,,,0.44,WUHU216HW,2013-06-06 19:23:00,
2013-06-06 15:28:00,63.5,61.8,29.35,NNE,23,1.1,4.3,94,0.02,,,0.44,WUHU216HW,2013-06-06 19:28:00,
2013-06-06 15:33:00,63.5,61.8,29.35,NE,45,7.6,7.6,94,0.01,,,0.44,WUHU216HW,2013-06-06 19:33:00,
2013-06-06 15:34:00,63.5,61.8,29.35,NE,45,7.6,7.6,94,0.01,,,0.44,WUHU216HW,2013-06-06 19:34:00,
2013-06-06 15:39:00,63.4,61.7,29.35,NW,315,0.7,7.6,94,0.00,,,0.44,WUHU216HW,2013-06-06 19:39:00,
2013-06-06 15:44:00,63.4,61.7,29.34,North,0,8.3,8.3,94,0.01,,,0.44,WUHU216HW,2013-06-06 19:44:00,
2013-06-06 15:49:00,63.4,61.7,29.34,NNW,338,0.9,8.3,94,0.02,,,0.46,WUHU216HW,2013-06-06 19:49:00,
2013-06-06 15:54:00,63.2,61.5,29.35,NNW,338,1.6,8.3,94,0.02,,,0.46,WUHU216HW,2013-06-06 19:54:00,
2013-06-06 15:59:00,63.2,61.5,29.35,NNW,338,1.8,1.8,94,0.02,,,0.46,WUHU216HW,2013-06-06 19:59:00,
2013-06-06 16:04:00,63.2,61.5,29.35,North,0,0.9,1.8,94,0.05,,,0.49,WUHU216HW,2013-06-06 20:04:00,
2013-06-06 16:09:00,63.2,61.5,29.34,North,0,5.4,6.9,94,0.06,,,0.50,WUHU216HW,2013-06-06 20:09:00,
2013-06-06 16:14:00,63.0,61.3,29.34,NNW,338,4.7,6.9,94,0.07,,,0.51,WUHU216HW,2013-06-06 20:14:00,
2013-06-06 16:19:00,63.0,61.3,29.34,North,0,3.6,5.4,94,0.09,,,0.53,WUHU216HW,2013-06-06 20:19:00,
2013-06-06 16:24:00,63.0,61.3,29.35,North,0,0.9,4.7,94,0.09,,,0.53,WUHU216HW,2013-06-06 20:24:00,
2013-06-06 16:29:00,63.0,61.3,29.35,NNW,338,0.9,3.6,94,0.11,,,0.55,WUHU216HW,2013-06-06 20:29:00,
2013-06-06 16:34:00,63.0,61.3,29.35,NE,45,3.4,3.4,94,0.12,,,0.56,WUHU216HW,2013-06-06 20:34:00,
2013-06-06 16:39:00,63.0,61.3,29.35,NE,45,4.5,4.5,94,0.13,,,0.58,WUHU216HW,2013-06-06 20:39:00,
2013-06-06 16:44:00,63.0,61.3,29.35,East,90,1.1,4.5,94,0.17,,,0.62,WUHU216HW,2013-06-06 20:44:00,
2013-06-06 16:49:00,63.0,61.3,29.34,ENE,68,2.2,4.5,94,0.18,,,0.64,WUHU216HW,2013-06-06 20:49:00,
2013-06-06 16:54:00,63.0,61.3,29.34,ESE,113,3.4,3.8,94,0.21,,,0.67,WUHU216HW,2013-06-06 20:54:00,
2013-06-06 16:59:00,63.0,61.3,29.34,ESE,113,1.8,3.8,94,0.21,,,0.68,WUHU216HW,2013-06-06 20:59:00,
2013-06-06 17:04:00,63.0,61.3,29.34,SE,135,0.4,3.4,94,0.21,,,0.70,WUHU216HW,2013-06-06 21:04:00,
2013-06-06 17:09:00,63.4,61.7,29.34,SE,135,0.7,1.8,94,0.21,,,0.71,WUHU216HW,2013-06-06 21:09:00,
2013-06-06 17:14:00,63.4,61.7,29.34,East,90,0.7,0.7,94,0.20,,,0.71,WUHU216HW,2013-06-06 21:14:00,
2013-06-06 17:19:00,63.5,61.8,29.34,WSW,248,0.4,0.7,94,0.19,,,0.72,WUHU216HW,2013-06-06 21:19:00,
2013-06-06 17:24:00,63.7,62.0,29.33,WSW,248,0.2,1.1,94,0.18,,,0.73,WUHU216HW,2013-06-06 21:24:00,
2013-06-06 17:29:00,63.9,62.2,29.33,SSW,203,0.0,1.1,94,0.20,,,0.75,WUHU216HW,2013-06-06 21:29:00,
2013-06-06 17:34:00,64.1,62.4,29.33,SSW,203,0.0,0.7,94,0.20,,,0.76,WUHU216HW,2013-06-06 21:34:00,
2013-06-06 17:39:00,64.4,62.7,29.33,WSW,248,0.0,0.9,94,0.17,,,0.77,WUHU216HW,2013-06-06 21:39:00,
2013-06-06 17:44:00,64.3,62.6,29.33,WSW,248,0.0,0.9,94,0.13,,,0.77,WUHU216HW,2013-06-06 21:44:00,
2013-06-06 17:49:00,64.1,62.4,29.33,West,270,1.6,1.6,94,0.11,,,0.78,WUHU216HW,2013-06-06 21:49:00,
2013-06-06 17:54:00,63.9,62.2,29.33,West,270,1.8,1.8,94,0.14,,,0.82,WUHU216HW,2013-06-06 21:54:00,
2013-06-06 17:59:00,63.9,62.2,29.32,NW,315,0.2,1.8,94,0.14,,,0.83,WUHU216HW,2013-06-06 21:59:00,
2013-06-06 18:04:00,63.9,62.2,29.32,NNW,338,0.7,1.8,94,0.14,,,0.85,WUHU216HW,2013-06-06 22:04:00,
2013-06-06 18:09:00,63.7,62.0,29.32,NNW,338,1.1,1.1,94,0.15,,,0.86,WUHU216HW,2013-06-06 22:09:00,
2013-06-06 18:14:00,63.7,62.0,29.32,NNW,338,0.2,1.1,94,0.15,,,0.87,WUHU216HW,2013-06-06 22:14:00,
2013-06-06 18:19:00,63.7,62.0,29.32,NE,45,0.9,1.1,94,0.16,,,0.88,WUHU216HW,2013-06-06 22:19:00,
2013-06-06 18:24:00,63.7,62.0,29.32,NNW,338,0.4,1.1,94,0.14,,,0.89,WUHU216HW,2013-06-06 22:24:00,
2013-06-06 18:29:00,63.4,61.7,29.32,NNW,338,1.3,1.3,94,0.15,,,0.91,WUHU216HW,2013-06-06 22:29:00,
2013-06-06 18:34:00,63.5,61.8,29.31,NNE,23,5.4,5.4,94,0.18,,,0.94,WUHU216HW,2013-06-06 22:34:00,
2013-06-06 18:39:00,63.4,61.7,29.31,NNE,23,5.6,5.6,94,0.18,,,0.95,WUHU216HW,2013-06-06 22:39:00,
2013-06-06 18:44:00,63.4,61.7,29.32,NNW,338,1.3,5.6,94,0.18,,,0.96,WUHU216HW,2013-06-06 22:44:00,
2013-06-06 18:49:00,63.4,61.9,29.32,NNW,338,0.2,5.6,95,0.16,,,0.96,WUHU216HW,2013-06-06 22:49:00,
2013-06-06 18:54:00,63.2,61.7,29.31,NNW,338,2.0,2.0,95,0.14,,,0.96,WUHU216HW,2013-06-06 22:54:00,
2013-06-06 18:59:00,63.4,61.9,29.31,North,0,3.1,4.5,95,0.14,,,0.97,WUHU216HW,2013-06-06 22:59:00,
2013-06-06 19:04:00,63.5,62.1,29.31,NNW,338,1.1,4.5,95,0.11,,,0.97,WUHU216HW,2013-06-06 23:04:00,
2013-06-06 19:09:00,63.5,62.1,29.31,NNW,338,1.1,3.1,95,0.11,,,0.97,WUHU216HW,2013-06-06 23:09:00,
2013-06-06 19:14:00,63.4,61.9,29.31,North,0,0.7,1.1,95,0.10,,,0.97,WUHU216HW,2013-06-06 23:14:00,
2013-06-06 19:19:00,63.4,61.9,29.31,NE,45,2.5,2.5,95,0.11,,,1.00,WUHU216HW,2013-06-06 23:19:00,
2013-06-06 19:24:00,63.2,61.7,29.31,NNE,23,4.9,4.9,95,0.10,,,1.00,WUHU216HW,2013-06-06 23:24:00,
2013-06-06 19:29:00,63.2,61.7,29.31,NNE,23,3.4,4.9,95,0.08,,,1.00,WUHU216HW,2013-06-06 23:29:00,
2013-06-06 19:34:00,63.2,61.7,29.31,NNE,23,0.9,4.9,95,0.05,,,1.00,WUHU216HW,2013-06-06 23:34:00,
2013-06-06 19:39:00,63.2,61.7,29.31,NE,45,2.5,3.4,95,0.04,,,1.00,WUHU216HW,2013-06-06 23:39:00,
2013-06-06 19:44:00,63.2,61.7,29.31,NNW,338,0.9,2.5,95,0.05,,,1.02,WUHU216HW,2013-06-06 23:44:00,
2013-06-06 19:49:00,63.2,61.7,29.30,North,0,1.8,2.5,95,0.06,,,1.02,WUHU216HW,2013-06-06 23:49:00,
2013-06-06 19:54:00,63.0,61.6,29.31,NW,315,1.6,1.8,95,0.07,,,1.04,WUHU216HW,2013-06-06 23:54:00,
2013-06-06 19:59:00,63.0,61.6,29.31,NW,315,1.1,2.5,95,0.07,,,1.04,WUHU216HW,2013-06-06 23:59:00,
2013-06-06 20:04:00,63.0,61.6,29.30,NW,315,0.4,2.5,95,0.08,,,1.05,WUHU216HW,2013-06-07 00:04:00,
2013-06-06 20:09:00,62.8,61.4,29.30,NNE,23,1.1,1.1,95,0.08,,,1.05,WUHU216HW,2013-06-07 00:09:00,
2013-06-06 20:14:00,62.8,61.4,29.30,NNW,338,1.8,1.8,95,0.08,,,1.07,WUHU216HW,2013-06-07 00:14:00,
2013-06-06 20:19:00,62.8,61.4,29.30,North,0,0.7,1.8,95,0.08,,,1.07,WUHU216HW,2013-06-07 00:19:00,
2013-06-06 20:24:00,62.6,61.2,29.30,NNW,338,2.2,2.2,95,0.10,,,1.09,WUHU216HW,2013-06-07 00:24:00,
2013-06-06 20:29:00,62.8,61.4,29.30,NNW,338,1.3,2.2,95,0.10,,,1.09,WUHU216HW,2013-06-07 00:29:00,
2013-06-06 20:34:00,62.6,61.2,29.30,North,0,1.1,2.2,95,0.10,,,1.09,WUHU216HW,2013-06-07 00:34:00,
2013-06-06 20:39:00,62.6,61.2,29.30,NNW,338,0.7,1.3,95,0.10,,,1.09,WUHU216HW,2013-06-07 00:39:00,
2013-06-06 20:44:00,62.6,61.2,29.30,WNW,293,1.6,1.6,95,0.08,,,1.11,WUHU216HW,2013-06-07 00:44:00,
2013-06-06 20:49:00,62.6,61.2,29.29,North,0,0.7,1.6,95,0.07,,,1.11,WUHU216HW,2013-06-07 00:49:00,
2013-06-06 20:54:00,62.6,61.2,29.29,NNW,338,0.9,1.6,95,0.06,,,1.11,WUHU216HW,2013-06-07 00:54:00,
2013-06-06 20:59:00,62.6,61.2,29.29,NNW,338,0.2,0.9,95,0.06,,,1.11,WUHU216HW,2013-06-07 00:59:00,
2013-06-06 21:04:00,62.6,61.2,29.30,NNW,338,1.3,1.3,95,0.05,,,1.11,WUHU216HW,2013-06-07 01:04:00,
2013-06-06 21:09:00,62.6,61.2,29.30,NW,315,0.9,1.3,95,0.04,,,1.11,WUHU216HW,2013-06-07 01:09:00,
2013-06-06 21:14:00,62.6,61.2,29.30,NNW,338,1.1,1.3,95,0.04,,,1.11,WUHU216HW,2013-06-07 01:14:00,
2013-06-06 21:19:00,62.5,61.0,29.29,North,0,0.7,1.1,95,0.04,,,1.12,WUHU216HW,2013-06-07 01:19:00,
2013-06-06 21:24:00,62.5,61.0,29.30,North,0,1.8,1.8,95,0.02,,,1.12,WUHU216HW,2013-06-07 01:24:00,
2013-06-06 21:29:00,62.5,61.0,29.30,North,0,3.6,3.6,95,0.02,,,1.12,WUHU216HW,2013-06-07 01:29:00,
2013-06-06 21:34:00,62.5,61.0,29.30,North,0,1.6,3.6,95,0.03,,,1.12,WUHU216HW,2013-06-07 01:34:00,
2013-06-06 21:39:00,62.5,61.0,29.30,North,0,0.4,3.6,95,0.03,,,1.13,WUHU216HW,2013-06-07 01:39:00,
2013-06-06 21:44:00,62.5,61.0,29.30,North,0,4.7,4.7,95,0.02,,,1.13,WUHU216HW,2013-06-07 01:44:00,
2013-06-06 21:49:00,62.6,61.2,29.30,NW,315,2.0,4.7,95,0.02,,,1.13,WUHU216HW,2013-06-07 01:49:00,
2013-06-06 21:54:00,62.5,61.0,29.30,NNW,338,1.1,4.7,95,0.02,,,1.13,WUHU216HW,2013-06-07 01:54:00,
2013-06-06 21:59:00,62.6,61.2,29.30,NNW,338,1.6,2.0,95,0.02,,,1.13,WUHU216HW,2013-06-07 01:59:00,
2013-06-06 22:04:00,62.6,61.2,29.30,NNW,338,0.9,1.6,95,0.02,,,1.13,WUHU216HW,2013-06-07 02:04:00,
2013-06-06 22:09:00,62.6,61.2,29.30,NNW,338,1.1,1.6,95,0.02,,,1.13,WUHU216HW,2013-06-07 02:09:00,
2013-06-06 22:14:00,62.5,61.0,29.30,North,0,2.5,2.5,95,0.01,,,1.13,WUHU216HW,2013-06-07 02:14:00,
2013-06-06 22:19:00,62.5,61.0,29.30,North,0,1.1,2.5,95,0.02,,,1.14,WUHU216HW,2013-06-07 02:19:00,
2013-06-06 22:24:00,62.6,61.2,29.30,North,0,2.5,2.5,95,0.02,,,1.14,WUHU216HW,2013-06-07 02:24:00,
2013-06-06 22:29:00,62.6,61.5,29.30,NNW,338,0.4,2.5,96,0.02,,,1.14,WUHU216HW,2013-06-07 02:29:00,
2013-06-06 22:34:00,62.6,61.5,29.30,North,0,1.6,2.5,96,0.01,,,1.14,WUHU216HW,2013-06-07 02:34:00,
2013-06-06 22:39:00,62.6,61.5,29.30,NW,315,0.4,1.8,96,0.01,,,1.14,WUHU216HW,2013-06-07 02:39:00,
2013-06-06 22:44:00,62.6,61.5,29.30,NW,315,1.6,1.6,96,0.01,,,1.14,WUHU216HW,2013-06-07 02:44:00,
2013-06-06 22:49:00,62.6,61.5,29.30,NW,315,0.9,1.6,96,0.01,,,1.14,WUHU216HW,2013-06-07 02:49:00,
2013-06-06 22:54:00,62.6,61.2,29.29,NNW,338,0.4,1.6,95,0.01,,,1.14,WUHU216HW,2013-06-07 02:54:00,
2013-06-06 22:59:00,62.6,61.5,29.29,NNE,23,1.1,1.1,96,0.01,,,1.14,WUHU216HW,2013-06-07 02:59:00,
2013-06-06 23:04:00,62.6,61.5,29.29,North,0,0.0,1.1,96,0.01,,,1.14,WUHU216HW,2013-06-07 03:04:00,
2013-06-06 23:09:00,62.6,61.5,29.29,NNW,338,0.0,1.1,96,0.01,,,1.14,WUHU216HW,2013-06-07 03:09:00,
2013-06-06 23:14:00,62.5,61.0,29.28,North,0,1.1,1.1,95,0.01,,,1.14,WUHU216HW,2013-06-07 03:14:00,
2013-06-06 23:19:00,62.5,61.0,29.28,North,0,0.0,1.1,95,0.00,,,1.14,WUHU216HW,2013-06-07 03:19:00,
2013-06-06 23:24:00,62.3,61.1,29.28,North,0,0.0,1.1,96,0.00,,,1.14,WUHU216HW,2013-06-07 03:24:00,
2013-06-06 23:29:00,62.1,60.9,29.28,North,0,0.0,0.0,96,0.00,,,1.14,WUHU216HW,2013-06-07 03:29:00,
2013-06-06 23:34:00,62.1,60.9,29.28,North,0,0.0,0.0,96,0.00,,,1.14,WUHU216HW,2013-06-07 03:34:00,
2013-06-06 23:39:00,62.1,60.9,29.28,North,0,1.8,1.8,96,0.00,,,1.14,WUHU216HW,2013-06-07 03:39:00,
2013-06-06 23:44:00,61.9,60.8,29.27,North,0,0.0,1.8,96,0.00,,,1.14,WUHU216HW,2013-06-07 03:44:00,
2013-06-06 23:49:00,61.9,60.8,29.27,North,0,0.0,1.8,96,0.00,,,1.14,WUHU216HW,2013-06-07 03:49:00,
2013-06-06 23:54:00,61.9,60.8,29.27,North,0,0.0,0.0,96,0.00,,,1.14,WUHU216HW,2013-06-07 03:54:00,
2013-06-06 23:59:00,61.7,60.6,29.27,North,0,0.0,0.0,96,0.00,,,1.14,WUHU216HW,2013-06-07 03:59:00,